,,,PA_Meas_PMT16A,,PR_Meas_QMR101_102,,RH_Meas_QMH101,,SR_Meas_QMS101,,TA_Meas_QMH101,,GenWind,,GenWind,
date,time,status,PA,status,PR,status,RH,status,SR,status,TA,status,DirAvg,status,SpdAvg,
2010-03-23, 00:00:04,VALID,999.456,VALID,0,VALID,91.7309,VALID,0,VALID,24.8332,VALID,108,VALID,0.379297,
2010-03-23, 00:01:04,VALID,999.447,VALID,0,VALID,91.7157,VALID,0,VALID,24.8313,VALID,108,VALID,0,
2010-03-23, 00:02:04,VALID,999.435,VALID,0,VALID,91.7614,VALID,0,VALID,24.8313,VALID,108,VALID,0,
2010-03-23, 00:03:04,VALID,999.395,VALID,0,VALID,91.8148,VALID,0,VALID,24.8917,VALID,106,VALID,0.369922,
2010-03-23, 00:04:04,VALID,999.356,VALID,0,VALID,91.7233,VALID,0,VALID,24.8917,VALID,84,VALID,0.298047,
2010-03-23, 00:05:04,VALID,999.317,VALID,0,VALID,91.6546,VALID,0,VALID,24.8722,VALID,84,VALID,0.513672,
2010-03-23, 00:06:04,VALID,999.283,VALID,0,VALID,91.6165,VALID,0,VALID,24.8722,VALID,94,VALID,0.496094,
2010-03-23, 00:07:04,VALID,999.238,VALID,0,VALID,91.6165,VALID,0,VALID,24.8722,VALID,98,VALID,0.214453,
2010-03-23, 00:08:04,VALID,999.184,VALID,0,VALID,91.6012,VALID,0,VALID,24.8508,VALID,98,VALID,0.338672,
2010-03-23, 00:09:04,VALID,999.177,VALID,0,VALID,91.6012,VALID,0,VALID,24.8527,VALID,98,VALID,0,
2010-03-23, 00:10:04,VALID,999.123,VALID,0,VALID,91.6088,VALID,0,VALID,24.8527,VALID,98,VALID,0,
2010-03-23, 00:11:04,VALID,999.12,VALID,0,VALID,91.6394,VALID,0,VALID,24.8313,VALID,98,VALID,0,
2010-03-23, 00:12:04,VALID,999.137,VALID,0,VALID,91.6165,VALID,0,VALID,24.8527,VALID,98,VALID,0,
2010-03-23, 00:13:04,VALID,999.133,VALID,0,VALID,91.6241,VALID,0,VALID,24.8332,VALID,98,VALID,0,
2010-03-23, 00:14:04,VALID,999.153,VALID,0,VALID,91.6623,VALID,0,VALID,24.8313,VALID,98,VALID,0,
2010-03-23, 00:15:04,VALID,999.15,VALID,0,VALID,91.6623,VALID,0,VALID,24.8313,VALID,98,VALID,0,
2010-03-23, 00:16:04,VALID,999.135,VALID,0,VALID,91.6699,VALID,0,VALID,24.8527,VALID,98,VALID,0,
2010-03-23, 00:17:04,VALID,999.14,VALID,0,VALID,91.6699,VALID,0,VALID,24.8508,VALID,98,VALID,0,
2010-03-23, 00:18:04,VALID,999.143,VALID,0,VALID,91.708,VALID,0,VALID,24.8722,VALID,98,VALID,0,
2010-03-23, 00:19:04,VALID,999.116,VALID,0,VALID,91.7233,VALID,0,VALID,24.8508,VALID,98,VALID,0,
2010-03-23, 00:20:04,VALID,999.144,VALID,0,VALID,91.7004,VALID,0,VALID,24.8917,VALID,98,VALID,0,
2010-03-23, 00:21:04,VALID,999.125,VALID,0,VALID,91.6546,VALID,0,VALID,24.8917,VALID,98,VALID,0,
2010-03-23, 00:22:04,VALID,999.151,VALID,0,VALID,91.6623,VALID,0,VALID,24.8508,VALID,98,VALID,0,
2010-03-23, 00:23:04,VALID,999.126,VALID,0,VALID,91.647,VALID,0,VALID,24.8917,VALID,98,VALID,0,
2010-03-23, 00:24:04,VALID,999.104,VALID,0,VALID,91.6241,VALID,0,VALID,24.8703,VALID,98,VALID,0,
2010-03-23, 00:25:04,VALID,999.106,VALID,0,VALID,91.647,VALID,0,VALID,24.8917,VALID,98,VALID,0,
2010-03-23, 00:26:04,VALID,999.07,VALID,0,VALID,91.6546,VALID,0,VALID,24.8917,VALID,96,VALID,0,
2010-03-23, 00:27:04,VALID,999.022,VALID,0,VALID,91.6623,VALID,0,VALID,24.9112,VALID,96,VALID,0,
2010-03-23, 00:28:04,VALID,998.997,VALID,0,VALID,91.6394,VALID,0,VALID,24.9112,VALID,96,VALID,0,
2010-03-23, 00:29:04,VALID,998.917,VALID,0,VALID,91.6317,VALID,0,VALID,24.9308,VALID,62,VALID,0,
2010-03-23, 00:30:04,VALID,998.906,VALID,0,VALID,91.6699,VALID,0,VALID,24.9503,VALID,345,VALID,0,
2010-03-23, 00:31:04,VALID,998.875,VALID,0,VALID,91.6851,VALID,0,VALID,24.9698,VALID,323,VALID,0,
2010-03-23, 00:32:04,VALID,998.852,VALID,0,VALID,91.6394,VALID,0,VALID,24.9679,VALID,315,VALID,0.516797,
2010-03-23, 00:33:04,VALID,998.823,VALID,0,VALID,91.4563,VALID,0,VALID,24.9698,VALID,294,VALID,0.948047,
2010-03-23, 00:34:04,VALID,998.854,VALID,0,VALID,91.3189,VALID,0,VALID,24.9093,VALID,337,VALID,1.46563,
2010-03-23, 00:35:04,VALID,998.866,VALID,0,VALID,91.3494,VALID,0,VALID,24.8703,VALID,344,VALID,1.3582,
2010-03-23, 00:36:04,VALID,998.872,VALID,0,VALID,91.3571,VALID,0,VALID,24.8703,VALID,347,VALID,0.855078,
2010-03-23, 00:37:04,VALID,998.874,VALID,0,VALID,91.3647,VALID,0,VALID,24.8722,VALID,349,VALID,0.880469,
2010-03-23, 00:38:04,VALID,998.898,VALID,0,VALID,91.3952,VALID,0,VALID,24.8703,VALID,3,VALID,0.823438,
2010-03-23, 00:39:04,VALID,998.878,VALID,0,VALID,91.4105,VALID,0,VALID,24.8508,VALID,9,VALID,0.903125,
2010-03-23, 00:40:04,VALID,998.884,VALID,0,VALID,91.38,VALID,0,VALID,24.8508,VALID,3,VALID,0.793359,
2010-03-23, 00:41:04,VALID,998.88,VALID,0,VALID,91.3876,VALID,0,VALID,24.8508,VALID,9,VALID,0.608984,
2010-03-23, 00:42:04,VALID,998.85,VALID,0,VALID,91.3723,VALID,0,VALID,24.8722,VALID,21,VALID,0.474609,
2010-03-23, 00:43:04,VALID,998.822,VALID,0,VALID,91.2655,VALID,0,VALID,24.8313,VALID,38,VALID,0.491797,
2010-03-23, 00:44:04,VALID,998.824,VALID,0,VALID,91.1968,VALID,0,VALID,24.8313,VALID,41,VALID,0.550391,
2010-03-23, 00:45:04,VALID,998.821,VALID,0,VALID,91.1968,VALID,0,VALID,24.8332,VALID,41,VALID,0.235547,
2010-03-23, 00:46:04,VALID,998.794,VALID,0,VALID,91.1587,VALID,0,VALID,24.8332,VALID,41,VALID,0,
2010-03-23, 00:47:04,VALID,998.778,VALID,0,VALID,91.1663,VALID,0,VALID,24.8332,VALID,62,VALID,0.0984375,
2010-03-23, 00:48:04,VALID,998.755,VALID,0,VALID,91.1206,VALID,0,VALID,24.8332,VALID,127,VALID,0.551562,
2010-03-23, 00:49:04,VALID,998.731,VALID,0,VALID,91.1206,VALID,0,VALID,24.8332,VALID,131,VALID,0.266797,
2010-03-23, 00:50:04,VALID,998.744,VALID,0,VALID,91.0977,VALID,0,VALID,24.8332,VALID,131,VALID,0.00585938,
2010-03-23, 00:51:04,VALID,998.734,VALID,0,VALID,91.09,VALID,0,VALID,24.8313,VALID,131,VALID,0,
2010-03-23, 00:52:04,VALID,998.733,VALID,0,VALID,91.0443,VALID,0,VALID,24.8313,VALID,131,VALID,0,
2010-03-23, 00:53:04,VALID,998.686,VALID,0.5,VALID,91.0137,VALID,0,VALID,24.8527,VALID,131,VALID,0,
2010-03-23, 00:54:04,VALID,998.66,VALID,0,VALID,91.1892,VALID,0,VALID,24.8508,VALID,334,VALID,0.648047,
2010-03-23, 00:55:04,VALID,998.639,VALID,0.5,VALID,91.1816,VALID,0,VALID,24.8917,VALID,343,VALID,0.621875,
2010-03-23, 00:56:04,VALID,998.633,VALID,0,VALID,91.235,VALID,0,VALID,24.8917,VALID,327,VALID,0.329688,
2010-03-23, 00:57:04,VALID,998.605,VALID,0,VALID,91.2045,VALID,0,VALID,24.8527,VALID,327,VALID,0,
2010-03-23, 00:58:04,VALID,998.593,VALID,0,VALID,91.2274,VALID,0,VALID,24.8527,VALID,327,VALID,0,
2010-03-23, 00:59:04,VALID,998.566,VALID,0,VALID,91.2503,VALID,0,VALID,24.8527,VALID,328,VALID,0,
2010-03-23, 01:00:04,VALID,998.591,VALID,0,VALID,91.3647,VALID,0,VALID,24.8332,VALID,328,VALID,0,
2010-03-23, 01:01:04,VALID,998.556,VALID,0,VALID,91.3952,VALID,0,VALID,24.8117,VALID,328,VALID,0.50625,
2010-03-23, 01:02:04,VALID,998.556,VALID,0,VALID,91.4563,VALID,0,VALID,24.8332,VALID,328,VALID,0.213281,
2010-03-23, 01:03:04,VALID,998.521,VALID,0,VALID,91.4944,VALID,0,VALID,24.7922,VALID,328,VALID,0,
2010-03-23, 01:04:04,VALID,998.496,VALID,0,VALID,91.5402,VALID,0,VALID,24.8332,VALID,328,VALID,0,
2010-03-23, 01:05:04,VALID,998.462,VALID,0,VALID,91.5326,VALID,0,VALID,24.7922,VALID,328,VALID,0,
2010-03-23, 01:06:04,VALID,998.441,VALID,0,VALID,91.5173,VALID,0,VALID,24.8332,VALID,328,VALID,0,
2010-03-23, 01:07:04,VALID,998.427,VALID,0,VALID,91.5402,VALID,0,VALID,24.8136,VALID,328,VALID,0,
2010-03-23, 01:08:04,VALID,998.396,VALID,0,VALID,91.5707,VALID,0,VALID,24.7941,VALID,328,VALID,0,
2010-03-23, 01:09:04,VALID,998.398,VALID,0,VALID,91.5707,VALID,0,VALID,24.7941,VALID,328,VALID,0,
2010-03-23, 01:10:04,VALID,998.359,VALID,0,VALID,91.586,VALID,0,VALID,24.7746,VALID,321,VALID,0,
2010-03-23, 01:11:04,VALID,998.349,VALID,0,VALID,91.6546,VALID,0,VALID,24.7746,VALID,290,VALID,0,
2010-03-23, 01:12:04,VALID,998.373,VALID,0,VALID,91.6928,VALID,0,VALID,24.7532,VALID,290,VALID,0,
2010-03-23, 01:13:04,VALID,998.372,VALID,0,VALID,91.7767,VALID,0,VALID,24.7727,VALID,290,VALID,0,
2010-03-23, 01:14:04,VALID,998.355,VALID,0,VALID,91.8759,VALID,0,VALID,24.8117,VALID,290,VALID,0,
2010-03-23, 01:15:04,VALID,998.334,VALID,0,VALID,91.8759,VALID,0,VALID,24.8313,VALID,290,VALID,0,
2010-03-23, 01:16:04,VALID,998.346,VALID,0,VALID,91.8377,VALID,0,VALID,24.8117,VALID,267,VALID,0,
2010-03-23, 01:17:04,VALID,998.341,VALID,0,VALID,91.792,VALID,0,VALID,24.8117,VALID,231,VALID,0,
2010-03-23, 01:18:04,VALID,998.284,VALID,0,VALID,91.8225,VALID,0,VALID,24.8313,VALID,231,VALID,0,
2010-03-23, 01:19:04,VALID,998.277,VALID,0,VALID,91.8301,VALID,0,VALID,24.8313,VALID,229,VALID,0,
2010-03-23, 01:20:04,VALID,998.239,VALID,0,VALID,91.853,VALID,0,VALID,24.8117,VALID,229,VALID,0,
2010-03-23, 01:21:04,VALID,998.238,VALID,0,VALID,91.8606,VALID,0,VALID,24.8313,VALID,229,VALID,0,
2010-03-23, 01:22:04,VALID,998.187,VALID,0,VALID,91.9217,VALID,0,VALID,24.8722,VALID,229,VALID,0,
2010-03-23, 01:23:04,VALID,998.14,VALID,0,VALID,91.8683,VALID,0,VALID,24.8313,VALID,287,VALID,0.953516,
2010-03-23, 01:24:04,VALID,998.093,VALID,0,VALID,91.8377,VALID,0,VALID,24.8527,VALID,297,VALID,0.89375,
2010-03-23, 01:25:04,VALID,998.106,VALID,0,VALID,91.7843,VALID,0,VALID,24.8117,VALID,307,VALID,1.13203,
2010-03-23, 01:26:04,VALID,998.1,VALID,0,VALID,91.7157,VALID,0,VALID,24.7941,VALID,301,VALID,0.837891,
2010-03-23, 01:27:04,VALID,998.063,VALID,0,VALID,91.8072,VALID,0,VALID,24.7746,VALID,313,VALID,0.543359,
2010-03-23, 01:28:04,VALID,998.063,VALID,0,VALID,91.8377,VALID,0,VALID,24.7142,VALID,312,VALID,0.497266,
2010-03-23, 01:29:04,VALID,998.063,VALID,0,VALID,91.9064,VALID,0,VALID,24.7337,VALID,307,VALID,0.112891,
2010-03-23, 01:30:04,VALID,998.074,VALID,0,VALID,91.9293,VALID,0,VALID,24.7142,VALID,307,VALID,0,
2010-03-23, 01:31:04,VALID,998.064,VALID,0,VALID,91.9369,VALID,0,VALID,24.7356,VALID,295,VALID,0,
2010-03-23, 01:32:04,VALID,998.122,VALID,0,VALID,91.9293,VALID,0,VALID,24.6751,VALID,280,VALID,0.528125,
2010-03-23, 01:33:04,VALID,998.116,VALID,0,VALID,91.9293,VALID,0,VALID,24.6556,VALID,278,VALID,0.585547,
2010-03-23, 01:34:04,VALID,998.115,VALID,0,VALID,91.8759,VALID,0,VALID,24.638,VALID,265,VALID,0.520703,
2010-03-23, 01:35:04,VALID,998.106,VALID,0,VALID,91.914,VALID,0,VALID,24.6184,VALID,264,VALID,0.662109,
2010-03-23, 01:36:04,VALID,998.118,VALID,0,VALID,91.9598,VALID,0,VALID,24.558,VALID,287,VALID,0.766797,
2010-03-23, 01:37:04,VALID,998.087,VALID,0,VALID,92.0666,VALID,0,VALID,24.5989,VALID,258,VALID,0.334766,
2010-03-23, 01:38:04,VALID,998.065,VALID,0,VALID,92.12,VALID,0,VALID,24.5775,VALID,269,VALID,0.0675781,
2010-03-23, 01:39:04,VALID,998.099,VALID,0,VALID,92.1048,VALID,0,VALID,24.5989,VALID,274,VALID,0.462109,
2010-03-23, 01:40:04,VALID,998.066,VALID,0,VALID,92.1582,VALID,0,VALID,24.5989,VALID,274,VALID,0.250391,
2010-03-23, 01:41:04,VALID,998.059,VALID,0,VALID,92.1887,VALID,0,VALID,24.5989,VALID,275,VALID,0.589453,
2010-03-23, 01:42:04,VALID,998.034,VALID,0,VALID,92.2345,VALID,0,VALID,24.5989,VALID,271,VALID,0.117188,
2010-03-23, 01:43:04,VALID,998.024,VALID,0,VALID,92.2192,VALID,0,VALID,24.5775,VALID,251,VALID,0,
2010-03-23, 01:44:04,VALID,997.992,VALID,0,VALID,92.1582,VALID,0,VALID,24.5989,VALID,251,VALID,0,
2010-03-23, 01:45:04,VALID,998.001,VALID,0,VALID,92.1963,VALID,0,VALID,24.5794,VALID,251,VALID,0,
2010-03-23, 01:46:04,VALID,997.947,VALID,0,VALID,92.1734,VALID,0,VALID,24.5404,VALID,251,VALID,0,
2010-03-23, 01:47:04,VALID,997.906,VALID,0,VALID,92.1582,VALID,0,VALID,24.5404,VALID,251,VALID,0,
2010-03-23, 01:48:04,VALID,997.901,VALID,0,VALID,92.1582,VALID,0,VALID,24.5209,VALID,251,VALID,0,
2010-03-23, 01:49:04,VALID,997.849,VALID,0,VALID,92.1734,VALID,0,VALID,24.5209,VALID,251,VALID,0,
2010-03-23, 01:50:04,VALID,997.838,VALID,0,VALID,92.1734,VALID,0,VALID,24.4818,VALID,251,VALID,0,
2010-03-23, 01:51:04,VALID,997.794,VALID,0,VALID,92.1963,VALID,0,VALID,24.4818,VALID,251,VALID,0,
2010-03-23, 01:52:04,VALID,997.82,VALID,0,VALID,92.2268,VALID,0,VALID,24.4818,VALID,251,VALID,0,
2010-03-23, 01:53:04,VALID,997.786,VALID,0,VALID,92.265,VALID,0,VALID,24.4818,VALID,251,VALID,0,
2010-03-23, 01:54:04,VALID,997.754,VALID,0,VALID,92.2726,VALID,0,VALID,24.4818,VALID,251,VALID,0,
2010-03-23, 01:55:04,VALID,997.754,VALID,0,VALID,92.2726,VALID,0,VALID,24.4818,VALID,251,VALID,0,
2010-03-23, 01:56:04,VALID,997.763,VALID,0.5,VALID,92.2879,VALID,0,VALID,24.4818,VALID,251,VALID,0,
2010-03-23, 01:57:04,VALID,997.773,VALID,0,VALID,92.2879,VALID,0,VALID,24.4818,VALID,251,VALID,0,
2010-03-23, 01:58:04,VALID,997.742,VALID,0,VALID,92.2803,VALID,0,VALID,24.4818,VALID,251,VALID,0,
2010-03-23, 01:59:04,VALID,997.75,VALID,0,VALID,92.265,VALID,0,VALID,24.4623,VALID,251,VALID,0,
2010-03-23, 02:00:04,VALID,997.735,VALID,0,VALID,92.2803,VALID,0,VALID,24.4623,VALID,251,VALID,0,
2010-03-23, 02:01:04,VALID,997.743,VALID,0,VALID,92.3871,VALID,0,VALID,24.4818,VALID,251,VALID,0,
2010-03-23, 02:02:04,VALID,997.732,VALID,0,VALID,92.3947,VALID,0,VALID,24.5013,VALID,206,VALID,0.508203,
2010-03-23, 02:03:04,VALID,997.73,VALID,0,VALID,92.2955,VALID,0,VALID,24.4604,VALID,205,VALID,0.776953,
2010-03-23, 02:04:04,VALID,997.743,VALID,0,VALID,92.1353,VALID,0,VALID,24.4233,VALID,205,VALID,0.320703,
2010-03-23, 02:05:04,VALID,997.745,VALID,0,VALID,92.2879,VALID,0,VALID,24.4428,VALID,205,VALID,0.425,
2010-03-23, 02:06:04,VALID,997.729,VALID,0,VALID,92.4939,VALID,0,VALID,24.4995,VALID,206,VALID,0.503906,
2010-03-23, 02:07:04,VALID,997.699,VALID,0,VALID,92.1429,VALID,0,VALID,24.4623,VALID,207,VALID,0.832812,
2010-03-23, 02:08:04,VALID,997.708,VALID,0,VALID,91.9827,VALID,0,VALID,24.4233,VALID,200,VALID,0.959766,
2010-03-23, 02:09:04,VALID,997.687,VALID,0,VALID,92.3413,VALID,0,VALID,24.5013,VALID,156,VALID,1.24492,
2010-03-23, 02:10:04,VALID,997.662,VALID,0,VALID,92.5015,VALID,0,VALID,24.6184,VALID,158,VALID,1.26289,
2010-03-23, 02:11:04,VALID,997.686,VALID,0,VALID,92.4786,VALID,0,VALID,24.638,VALID,150,VALID,1.36875,
2010-03-23, 02:12:04,VALID,997.673,VALID,0,VALID,92.471,VALID,0,VALID,24.6965,VALID,149,VALID,1.12734,
2010-03-23, 02:13:04,VALID,997.642,VALID,0,VALID,92.3566,VALID,0,VALID,24.6965,VALID,156,VALID,1.10234,
2010-03-23, 02:14:04,VALID,997.654,VALID,0,VALID,92.3184,VALID,0,VALID,24.6965,VALID,137,VALID,1.28867,
2010-03-23, 02:15:04,VALID,997.627,VALID,0,VALID,92.2574,VALID,0,VALID,24.6965,VALID,130,VALID,1.13125,
2010-03-23, 02:16:04,VALID,997.613,VALID,0,VALID,92.2268,VALID,0,VALID,24.6556,VALID,118,VALID,1.03672,
2010-03-23, 02:17:04,VALID,997.612,VALID,0,VALID,92.204,VALID,0,VALID,24.677,VALID,114,VALID,1.23594,
2010-03-23, 02:18:04,VALID,997.596,VALID,0,VALID,92.2726,VALID,0,VALID,24.638,VALID,110,VALID,0.970703,
2010-03-23, 02:19:04,VALID,997.575,VALID,0,VALID,92.326,VALID,0,VALID,24.638,VALID,102,VALID,0.989062,
2010-03-23, 02:20:04,VALID,997.551,VALID,0,VALID,92.4023,VALID,0,VALID,24.638,VALID,102,VALID,1.06602,
2010-03-23, 02:21:04,VALID,997.525,VALID,0,VALID,92.4252,VALID,0,VALID,24.638,VALID,120,VALID,0.694141,
2010-03-23, 02:22:04,VALID,997.539,VALID,0,VALID,92.4939,VALID,0,VALID,24.677,VALID,108,VALID,0.669531,
2010-03-23, 02:23:04,VALID,997.531,VALID,0,VALID,92.471,VALID,0,VALID,24.677,VALID,125,VALID,0.607031,
2010-03-23, 02:24:04,VALID,997.534,VALID,0,VALID,92.3718,VALID,0,VALID,24.638,VALID,124,VALID,0.641797,
2010-03-23, 02:25:04,VALID,997.539,VALID,0,VALID,92.3794,VALID,0,VALID,24.6361,VALID,124,VALID,0.273828,
2010-03-23, 02:26:04,VALID,997.513,VALID,0,VALID,92.4634,VALID,0,VALID,24.638,VALID,104,VALID,0.199219,
2010-03-23, 02:27:04,VALID,997.541,VALID,0,VALID,92.4634,VALID,0,VALID,24.6361,VALID,104,VALID,0,
2010-03-23, 02:28:04,VALID,997.547,VALID,0,VALID,92.4634,VALID,0,VALID,24.6361,VALID,104,VALID,0.474609,
2010-03-23, 02:29:04,VALID,997.508,VALID,0,VALID,92.4939,VALID,0,VALID,24.638,VALID,104,VALID,0.308984,
2010-03-23, 02:30:04,VALID,997.519,VALID,0,VALID,92.4863,VALID,0,VALID,24.638,VALID,113,VALID,0.796484,
2010-03-23, 02:31:04,VALID,997.516,VALID,0,VALID,92.4634,VALID,0,VALID,24.638,VALID,125,VALID,0.697266,
2010-03-23, 02:32:04,VALID,997.516,VALID,0,VALID,92.471,VALID,0,VALID,24.638,VALID,142,VALID,0.580859,
2010-03-23, 02:33:04,VALID,997.524,VALID,0,VALID,92.5091,VALID,0,VALID,24.6594,VALID,161,VALID,0.521875,
2010-03-23, 02:34:04,VALID,997.579,VALID,0,VALID,92.5473,VALID,0,VALID,24.638,VALID,161,VALID,0.633203,
2010-03-23, 02:35:04,VALID,997.576,VALID,0,VALID,92.5168,VALID,0,VALID,24.6184,VALID,164,VALID,0.623047,
2010-03-23, 02:36:04,VALID,997.615,VALID,0,VALID,92.5244,VALID,0,VALID,24.638,VALID,161,VALID,0.619531,
2010-03-23, 02:37:04,VALID,997.628,VALID,0,VALID,92.5015,VALID,0,VALID,24.6184,VALID,161,VALID,0.583203,
2010-03-23, 02:38:04,VALID,997.614,VALID,0,VALID,92.5168,VALID,0,VALID,24.6166,VALID,173,VALID,0.807813,
2010-03-23, 02:39:04,VALID,997.67,VALID,0,VALID,92.5397,VALID,0,VALID,24.638,VALID,183,VALID,0.628125,
2010-03-23, 02:40:04,VALID,997.666,VALID,0,VALID,92.5931,VALID,0,VALID,24.6575,VALID,185,VALID,0.519922,
2010-03-23, 02:41:04,VALID,997.678,VALID,0,VALID,92.6388,VALID,0,VALID,24.677,VALID,188,VALID,1.00586,
2010-03-23, 02:42:04,VALID,997.672,VALID,0,VALID,92.5549,VALID,0,VALID,24.6556,VALID,178,VALID,0.883984,
2010-03-23, 02:43:04,VALID,997.696,VALID,0,VALID,92.5091,VALID,0,VALID,24.6575,VALID,168,VALID,0.495313,
2010-03-23, 02:44:04,VALID,997.72,VALID,0,VALID,92.5778,VALID,0,VALID,24.6751,VALID,177,VALID,1.02813,
2010-03-23, 02:45:04,VALID,997.728,VALID,0,VALID,92.6465,VALID,0,VALID,24.7356,VALID,201,VALID,1.0625,
2010-03-23, 02:46:04,VALID,997.767,VALID,0,VALID,92.6312,VALID,0,VALID,24.7356,VALID,180,VALID,1.32695,
2010-03-23, 02:47:04,VALID,997.772,VALID,0,VALID,92.5778,VALID,0,VALID,24.7551,VALID,192,VALID,1.57695,
2010-03-23, 02:48:04,VALID,997.762,VALID,0,VALID,92.4786,VALID,0,VALID,24.7356,VALID,199,VALID,1.44961,
2010-03-23, 02:49:04,VALID,997.795,VALID,0,VALID,92.4557,VALID,0,VALID,24.7356,VALID,200,VALID,1.38086,
2010-03-23, 02:50:04,VALID,997.804,VALID,0,VALID,92.4176,VALID,0,VALID,24.7551,VALID,200,VALID,1.31211,
2010-03-23, 02:51:04,VALID,997.846,VALID,0,VALID,92.3871,VALID,0,VALID,24.7551,VALID,214,VALID,1.2125,
2010-03-23, 02:52:04,VALID,997.867,VALID,0,VALID,92.326,VALID,0,VALID,24.7356,VALID,216,VALID,0.916406,
2010-03-23, 02:53:04,VALID,997.906,VALID,0,VALID,92.3184,VALID,0,VALID,24.7356,VALID,222,VALID,0.662891,
2010-03-23, 02:54:04,VALID,997.96,VALID,0,VALID,92.2955,VALID,0,VALID,24.757,VALID,186,VALID,1.22969,
2010-03-23, 02:55:04,VALID,997.972,VALID,0,VALID,92.3642,VALID,0,VALID,24.7765,VALID,198,VALID,0.767969,
2010-03-23, 02:56:04,VALID,998.005,VALID,0,VALID,92.2955,VALID,0,VALID,24.7765,VALID,169,VALID,1.17109,
2010-03-23, 02:57:04,VALID,998.032,VALID,0,VALID,92.3489,VALID,0,VALID,24.7941,VALID,181,VALID,1.03008,
2010-03-23, 02:58:04,VALID,998.031,VALID,0,VALID,92.2879,VALID,0,VALID,24.7746,VALID,177,VALID,0.824219,
2010-03-23, 02:59:04,VALID,998.033,VALID,0,VALID,92.2192,VALID,0,VALID,24.7746,VALID,220,VALID,0.538281,
2010-03-23, 03:00:04,VALID,998.068,VALID,0,VALID,92.1887,VALID,0,VALID,24.7551,VALID,230,VALID,0.147266,
2010-03-23, 03:01:04,VALID,998.064,VALID,0,VALID,92.1811,VALID,0,VALID,24.7551,VALID,221,VALID,0,
2010-03-23, 03:02:04,VALID,998.073,VALID,0,VALID,92.1124,VALID,0,VALID,24.7356,VALID,170,VALID,0.865625,
2010-03-23, 03:03:04,VALID,998.085,VALID,0,VALID,92.0056,VALID,0,VALID,24.6965,VALID,172,VALID,0.814453,
2010-03-23, 03:04:04,VALID,998.084,VALID,0,VALID,91.998,VALID,0,VALID,24.677,VALID,164,VALID,0.444922,
2010-03-23, 03:05:04,VALID,998.043,VALID,0,VALID,92.0514,VALID,0,VALID,24.6984,VALID,137,VALID,0.707812,
2010-03-23, 03:06:04,VALID,998.048,VALID,0,VALID,92.0132,VALID,0,VALID,24.6575,VALID,142,VALID,0.694531,
2010-03-23, 03:07:04,VALID,998.017,VALID,0,VALID,91.9674,VALID,0,VALID,24.638,VALID,155,VALID,0.785547,
2010-03-23, 03:08:04,VALID,997.961,VALID,0,VALID,91.9827,VALID,0,VALID,24.6184,VALID,162,VALID,0.466797,
2010-03-23, 03:09:04,VALID,997.961,VALID,0,VALID,92.0666,VALID,0,VALID,24.638,VALID,163,VALID,0.571094,
2010-03-23, 03:10:04,VALID,997.929,VALID,0,VALID,92.1048,VALID,0,VALID,24.638,VALID,162,VALID,0.589063,
2010-03-23, 03:11:04,VALID,997.922,VALID,0,VALID,92.1048,VALID,0,VALID,24.6184,VALID,162,VALID,0.464063,
2010-03-23, 03:12:04,VALID,997.91,VALID,0,VALID,92.1048,VALID,0,VALID,24.6184,VALID,172,VALID,0.735156,
2010-03-23, 03:13:04,VALID,997.887,VALID,0,VALID,92.12,VALID,0,VALID,24.638,VALID,174,VALID,1.01211,
2010-03-23, 03:14:04,VALID,997.884,VALID,0,VALID,92.0895,VALID,0,VALID,24.6184,VALID,183,VALID,1.18398,
2010-03-23, 03:15:04,VALID,997.885,VALID,0,VALID,92.1124,VALID,0,VALID,24.638,VALID,186,VALID,1.02031,
2010-03-23, 03:16:04,VALID,997.9,VALID,0,VALID,92.0819,VALID,0,VALID,24.638,VALID,180,VALID,1.21914,
2010-03-23, 03:17:04,VALID,997.931,VALID,0,VALID,92.1582,VALID,0,VALID,24.6575,VALID,187,VALID,1.42969,
2010-03-23, 03:18:04,VALID,997.955,VALID,0,VALID,92.1963,VALID,0,VALID,24.6965,VALID,191,VALID,1.03008,
2010-03-23, 03:19:04,VALID,997.947,VALID,0,VALID,92.2116,VALID,0,VALID,24.7356,VALID,182,VALID,0.980859,
2010-03-23, 03:20:04,VALID,997.913,VALID,0,VALID,92.0819,VALID,0,VALID,24.716,VALID,150,VALID,0.969141,
2010-03-23, 03:21:04,VALID,997.896,VALID,0,VALID,92.059,VALID,0,VALID,24.6965,VALID,144,VALID,0.5,
2010-03-23, 03:22:04,VALID,997.871,VALID,0,VALID,91.9827,VALID,0,VALID,24.716,VALID,134,VALID,0.646875,
2010-03-23, 03:23:04,VALID,997.841,VALID,0,VALID,91.9827,VALID,0,VALID,24.677,VALID,126,VALID,0.653906,
2010-03-23, 03:24:04,VALID,997.823,VALID,0,VALID,91.9064,VALID,0,VALID,24.677,VALID,111,VALID,0.551562,
2010-03-23, 03:25:04,VALID,997.8,VALID,0,VALID,91.9064,VALID,0,VALID,24.6575,VALID,111,VALID,0.320703,
2010-03-23, 03:26:04,VALID,997.803,VALID,0,VALID,91.9293,VALID,0,VALID,24.638,VALID,111,VALID,0,
2010-03-23, 03:27:04,VALID,997.751,VALID,0,VALID,91.9217,VALID,0,VALID,24.6184,VALID,111,VALID,0,
2010-03-23, 03:28:04,VALID,997.735,VALID,0,VALID,91.9674,VALID,0,VALID,24.6184,VALID,111,VALID,0.346484,
2010-03-23, 03:29:04,VALID,997.757,VALID,0,VALID,91.9674,VALID,0,VALID,24.5989,VALID,112,VALID,0,
2010-03-23, 03:30:04,VALID,997.782,VALID,0,VALID,91.998,VALID,0,VALID,24.5989,VALID,125,VALID,0.382813,
2010-03-23, 03:31:04,VALID,997.756,VALID,0,VALID,91.9751,VALID,0,VALID,24.5971,VALID,125,VALID,0.443359,
2010-03-23, 03:32:04,VALID,997.739,VALID,0,VALID,91.9751,VALID,0,VALID,24.5971,VALID,125,VALID,0,
2010-03-23, 03:33:04,VALID,997.748,VALID,0,VALID,92.059,VALID,0,VALID,24.5989,VALID,125,VALID,0,
2010-03-23, 03:34:04,VALID,997.736,VALID,0,VALID,92.0895,VALID,0,VALID,24.5775,VALID,125,VALID,0,
2010-03-23, 03:35:04,VALID,997.747,VALID,0,VALID,92.0819,VALID,0,VALID,24.5971,VALID,125,VALID,0,
2010-03-23, 03:36:04,VALID,997.777,VALID,0,VALID,92.059,VALID,0,VALID,24.5775,VALID,139,VALID,0,
2010-03-23, 03:37:04,VALID,997.786,VALID,0,VALID,92.0971,VALID,0,VALID,24.5775,VALID,170,VALID,0.667578,
2010-03-23, 03:38:04,VALID,997.845,VALID,0,VALID,92.1658,VALID,0,VALID,24.5971,VALID,171,VALID,0.461719,
2010-03-23, 03:39:04,VALID,997.854,VALID,0,VALID,92.1658,VALID,0,VALID,24.5971,VALID,172,VALID,1.06719,
2010-03-23, 03:40:04,VALID,997.891,VALID,0,VALID,92.2345,VALID,0,VALID,24.6166,VALID,173,VALID,1.10273,
2010-03-23, 03:41:04,VALID,997.957,VALID,0,VALID,92.2345,VALID,0.112286,VALID,24.6556,VALID,178,VALID,0.944531,
2010-03-23, 03:42:04,VALID,998.024,VALID,0,VALID,92.204,VALID,0.112286,VALID,24.677,VALID,185,VALID,1.27305,
2010-03-23, 03:43:04,VALID,998.025,VALID,0,VALID,92.2497,VALID,0,VALID,24.6751,VALID,176,VALID,1.36758,
2010-03-23, 03:44:04,VALID,998.062,VALID,0,VALID,92.1353,VALID,0.112286,VALID,24.6751,VALID,172,VALID,1.53711,
2010-03-23, 03:45:04,VALID,998.084,VALID,0,VALID,92.1506,VALID,0,VALID,24.6946,VALID,184,VALID,1.6582,
2010-03-23, 03:46:04,VALID,998.089,VALID,0,VALID,92.0437,VALID,0,VALID,24.6965,VALID,178,VALID,1.57187,
2010-03-23, 03:47:04,VALID,998.072,VALID,0,VALID,92.1124,VALID,0,VALID,24.6965,VALID,181,VALID,1.58438,
2010-03-23, 03:48:05,VALID,998.031,VALID,0,VALID,92.0895,VALID,0,VALID,24.716,VALID,213,VALID,0.988281,
2010-03-23, 03:49:05,VALID,998.02,VALID,0,VALID,92.059,VALID,0,VALID,24.6946,VALID,213,VALID,0.933594,
2010-03-23, 03:50:05,VALID,998.028,VALID,0,VALID,92.0285,VALID,0,VALID,24.6965,VALID,206,VALID,0.979297,